N5COP-13 Weather Reports


time (UTC)temp
F
wind
direction
speed
knots
gust
knots
rain 1hr
in
rain 24hr
in
rain mn
in
humidity
%
barometer
mb
20260906212300 92 157 11.3 18.2 0.00 0.00 0.00 38 1016.1
20260906211800 92 138 10.4 15.6 0.00 0.00 0.00 39 1016.2
20260906211255 92 176 7.8 14.8 0.00 0.00 0.00 38 1016.2
20260906210750 92 121 10.4 11.3 0.00 0.00 0.00 38 1016.2
20260906210245 91 144 16.5 20.0 0.00 0.00 0.00 38 1016.3
20260906205745 92 153 14.8 17.4 0.00 0.00 0.00 38 1016.4
20260906205241 92 139 9.6 16.5 0.00 0.00 0.00 39 1016.4
20260906204736 92 157 11.3 14.8 0.00 0.00 0.00 39 1016.6
20260906204230 91 150 9.6 9.6 0.00 0.00 0.00 40 1016.6
20260906203729 92 132 13.9 14.8 0.00 0.00 0.00 40 1016.6
20260906203225 91 151 11.3 11.3 0.00 0.00 0.00 41 1016.6
20260906202722 91 170 7.0 10.4 0.00 0.00 0.00 39 1016.8
20260906202221 91 164 8.7 13.9 0.00 0.00 0.00 40 1016.6
20260906201716 91 146 13.9 16.5 0.00 0.00 0.00 41 1016.5
20260906201216 90 115 8.7 14.8 0.00 0.00 0.00 40 1017.0
20260906200711 91 142 13.0 15.6 0.00 0.00 0.00 40 1016.6
20260906200207 91 166 10.4 17.4 0.00 0.00 0.00 42 1016.9
20260906195703 90 134 13.0 13.0 0.00 0.00 0.00 42 1016.9
20260906195159 91 191 7.8 12.2 0.00 0.00 0.00 41 1016.9
20260906194654 90 152 15.6 15.6 0.00 0.00 0.00 41 1017.2
20260906194149 91 158 7.0 13.0 0.00 0.00 0.00 42 1017.2
20260906193644 90 144 7.8 9.6 0.00 0.00 0.00 41 1017.4
20260906193139 90 165 7.8 13.0 0.00 0.00 0.00 42 1017.2
20260906192636 89 151 10.4 13.0 0.00 0.00 0.00 44 1017.2
20260906192134 89 141 11.3 19.1 0.00 0.00 0.00 44 1017.4
20260906191630 90 133 9.6 14.8 0.00 0.00 0.00 43 1017.3
20260906191128 91 133 13.9 15.6 0.00 0.00 0.00 45 1017.2
20260906190623 91 175 6.1 9.6 0.00 0.00 0.00 42 1017.9
20260906190118 90 172 8.7 9.6 0.00 0.00 0.00 43 1017.9
20260906185616 90 164 9.6 13.0 0.00 0.00 0.00 42 1017.8
20260906185116 90 135 18.2 20.0 0.00 0.00 0.00 45 1017.8
20260906184610 89 155 7.0 9.6 0.00 0.00 0.00 44 1017.7
20260906184106 88 206 5.2 12.2 0.00 0.00 0.00 43 1018.1
20260906183602 88 114 9.6 12.2 0.00 0.00 0.00 45 1018.2
20260906183058 89 146 12.2 17.4 0.00 0.00 0.00 46 1018.0
20260906182552 89 195 4.3 7.8 0.00 0.00 0.00 48 1018.3
20260906182049 89 169 7.0 7.8 0.00 0.00 0.00 46 1018.3
20260906181544 89 144 7.0 13.0 0.00 0.00 0.00 46 1018.5
20260906181039 88 189 5.2 10.4 0.00 0.00 0.00 47 1018.3
20260906180534 88 197 4.3 7.8 0.00 0.00 0.00 46 1018.4
20260906180033 89 164 7.8 12.2 0.00 0.00 0.00 46 1018.5
20260906175527 89 152 8.7 11.3 0.00 0.00 0.00 46 1018.7
20260906175027 88 230 4.3 11.3 0.00 0.00 0.00 46 1018.9
20260906174525 89 169 7.0 13.9 0.00 0.00 0.00 49 1018.7
20260906174020 89 185 4.3 7.8 0.00 0.00 0.00 49 1018.8
20260906173515 87 150 7.0 11.3 0.00 0.00 0.00 49 1018.8
20260906173010 88 141 8.7 12.2 0.00 0.00 0.00 47 1019.0
20260906172505 88 163 7.8 12.2 0.00 0.00 0.00 49 1019.0
20260906172001 88 153 7.8 15.6 0.00 0.00 0.00 48 1018.9
20260906171455 88 170 5.2 10.4 0.00 0.00 0.00 49 1019.0
20260906170950 87 146 10.4 16.5 0.00 0.00 0.00 49 1019.1
20260906170447 87 170 8.7 10.4 0.00 0.00 0.00 50 1019.1
20260906165944 87 200 6.1 9.6 0.00 0.00 0.00 49 1019.0
20260906165443 87 172 8.7 12.2 0.00 0.00 0.00 51 1019.1
20260906164937 87 175 8.7 8.7 0.00 0.00 0.00 51 1019.2
20260906164436 87 153 9.6 15.6 0.00 0.00 0.00 52 1019.1
20260906163927 87 152 11.3 12.2 0.00 0.00 0.00 53 1019.2
20260906163423 87 187 5.2 8.7 0.00 0.00 0.00 54 1019.2
20260906162920 86 177 7.0 9.6 0.00 0.00 0.00 52 1019.2
20260906162414 86 201 6.1 7.8 0.00 0.00 0.00 56 1019.0
20260906161909 86 170 7.8 8.7 0.00 0.00 0.00 57 1019.2
20260906161408 86 205 7.0 12.2 0.00 0.00 0.00 57 1019.0
20260906160907 85 211 10.4 13.0 0.00 0.00 0.00 57 1019.4
20260906160401 85 199 10.4 12.2 0.00 0.00 0.00 56 1019.3
20260906155859 85 213 10.4 12.2 0.00 0.00 0.00 58 1019.1
20260906155353 84 206 6.1 12.2 0.00 0.00 0.00 59 1019.2
20260906154850 84 186 7.0 13.0 0.00 0.00 0.00 59 1019.0
20260906154349 84 200 10.4 11.3 0.00 0.00 0.00 59 1019.1
20260906153848 83 209 10.4 12.2 0.00 0.00 0.00 61 1019.2
20260906153342 83 214 7.8 9.6 0.00 0.00 0.00 61 1019.2
20260906152837 83 202 9.6 10.4 0.00 0.00 0.00 61 1019.3
20260906152337 82 212 8.7 12.2 0.00 0.00 0.00 62 1019.0
20260906151836 82 217 8.7 10.4 0.00 0.00 0.00 64 1019.1
20260906151332 82 203 11.3 13.0 0.00 0.00 0.00 63 1019.0
20260906150827 82 201 7.0 8.7 0.00 0.00 0.00 64 1019.0
20260906150323 81 203 9.6 12.2 0.00 0.00 0.00 64 1019.0
20260906145822 81 189 6.1 9.6 0.00 0.00 0.00 66 1019.0
20260906145320 80 201 10.4 10.4 0.00 0.00 0.00 66 1019.3
20260906144816 80 193 6.1 10.4 0.00 0.00 0.00 65 1019.1
20260906144311 80 196 7.8 12.2 0.00 0.00 0.00 65 1019.0
20260906143810 80 202 10.4 11.3 0.00 0.00 0.00 66 1018.9
20260906143307 79 193 5.2 8.7 0.00 0.00 0.00 67 1019.1
20260906142803 79 218 7.8 8.7 0.00 0.00 0.00 67 1019.2
20260906142258 78 204 7.8 10.4 0.00 0.00 0.00 65 1018.9
20260906141756 78 198 8.7 8.7 0.00 0.00 0.00 66 1019.1
20260906141251 77 189 4.3 10.4 0.00 0.00 0.00 67 1018.9
20260906140750 77 201 6.1 7.8 0.00 0.00 0.00 67 1018.9
20260906140240 77 195 6.1 7.0 0.00 0.00 0.00 69 1018.8
20260906135737 76 172 6.1 9.6 0.00 0.00 0.00 70 1018.8
20260906135233 76 176 6.1 8.7 0.00 0.00 0.00 69 1018.9
20260906134728 75 167 5.2 7.8 0.00 0.00 0.00 70 1018.5
20260906134223 75 183 5.2 9.6 0.00 0.00 0.00 69 1018.5
20260906133719 75 205 6.1 9.6 0.00 0.00 0.00 71 1018.4
20260906133214 75 198 6.1 7.8 0.00 0.00 0.00 71 1018.3
20260906132709 74 198 5.2 7.8 0.00 0.00 0.00 71 1018.5
20260906132205 74 182 4.3 7.8 0.00 0.00 0.00 71 1018.2
20260906131700 73 164 5.2 8.7 0.00 0.00 0.00 71 1018.5
20260906131154 73 188 4.3 7.8 0.00 0.00 0.00 72 1018.5
20260906130649 73 167 5.2 7.8 0.00 0.00 0.00 72 1018.3
20260906130145 73 168 5.2 7.8 0.00 0.00 0.00 72 1018.2
20260906125637 73 173 5.2 7.8 0.00 0.00 0.00 72 1018.2
20260906125136 73 166 6.1 7.0 0.00 0.00 0.00 72 1018.1
20260906124632 73 167 6.1 8.7 0.00 0.00 0.00 72 1018.2
20260906124127 73 186 5.2 6.1 0.00 0.00 0.00 73 1018.2
20260906123626 73 182 5.2 7.0 0.00 0.00 0.00 73 1018.2
20260906123121 73 199 4.3 7.0 0.00 0.00 0.00 73 1018.1
20260906122620 73 165 5.2 7.0 0.00 0.00 0.00 72 1017.9
20260906122116 73 186 3.5 7.0 0.00 0.00 0.00 73 1017.9
20260906121612 73 169 4.3 7.8 0.00 0.00 0.00 73 1017.9
20260906121103 73 192 4.3 5.2 0.00 0.00 0.00 73 1017.9
20260906120557 73 167 5.2 7.8 0.00 0.00 0.00 72 1017.9
20260906120055 73 177 3.5 7.0 0.00 0.00 0.00 72 1017.5
20260906115549 73 163 5.2 5.2 0.00 0.00 0.00 72 1017.4
20260906115044 73 167 5.2 7.0 0.00 0.00 0.00 72 1017.5
20260906114538 73 180 4.3 6.1 0.00 0.00 0.00 73 1017.7
20260906114034 72 164 4.3 6.1 0.00 0.00 0.00 73 1017.7
20260906113532 72 145 6.1 7.0 0.00 0.00 0.00 73 1017.7
20260906113028 72 150 2.6 4.3 0.00 0.00 0.00 74 1017.8
20260906112522 72 142 3.5 6.1 0.00 0.00 0.00 74 1017.7
20260906112019 72 137 3.5 7.0 0.00 0.00 0.00 74 1017.7
20260906111513 72 156 4.3 7.0 0.00 0.00 0.00 74 1017.8
20260906111008 72 154 4.3 5.2 0.00 0.00 0.00 74 1017.2
20260906110503 72 159 5.2 7.0 0.00 0.00 0.00 74 1017.4
20260906110002 72 164 5.2 5.2 0.00 0.00 0.00 75 1017.5
20260906105458 72 155 4.3 5.2 0.00 0.00 0.00 75 1017.3
20260906104954 72 156 5.2 5.2 0.00 0.00 0.00 76 1017.4
20260906104452 72 144 4.3 5.2 0.00 0.00 0.00 77 1017.2
20260906103951 72 160 3.5 4.3 0.00 0.00 0.00 77 1017.2
20260906103450 72 154 3.5 4.3 0.00 0.00 0.00 77 1017.7
20260906102945 72 147 3.5 4.3 0.00 0.00 0.00 78 1017.3
20260906102444 72 130 4.3 5.2 0.00 0.00 0.00 77 1017.1
20260906101939 73 133 5.2 5.2 0.00 0.00 0.00 75 1017.2
20260906101435 73 150 2.6 4.3 0.00 0.00 0.00 74 1017.2
20260906100930 72 158 4.3 4.3 0.00 0.00 0.00 75 1017.2
20260906100430 73 152 2.6 3.5 0.00 0.00 0.00 75 1017.2
20260906095924 73 195 1.7 3.5 0.00 0.00 0.00 75 1017.3
20260906095420 72 188 1.7 2.6 0.00 0.00 0.00 76 1017.3
20260906094914 72 172 1.7 2.6 0.00 0.00 0.00 76 1017.2
20260906094409 73 149 1.7 3.5 0.00 0.00 0.00 76 1017.4
20260906093905 73 149 2.6 4.3 0.00 0.00 0.00 74 1017.4
20260906093401 73 159 2.6 3.5 0.00 0.00 0.00 75 1017.4
20260906092855 72 202 2.6 3.5 0.00 0.00 0.00 77 1017.5
20260906092349 72 209 3.5 3.5 0.00 0.00 0.00 78 1017.4
20260906091845 71 174 1.7 2.6 0.00 0.00 0.00 80 1017.5
20260906091341 71 178 0.0 1.7 0.00 0.00 0.00 81 1017.4
20260906090837 71 199 1.7 1.7 0.00 0.00 0.00 82 1017.5
20260906090336 71 239 1.7 2.6 0.00 0.00 0.00 82 1017.4
20260906085831 72 218 1.7 1.7 0.00 0.00 0.00 82 1017.2
20260906085329 71 158 0.9 2.6 0.00 0.00 0.00 81 1017.4
20260906084824 71 235 1.7 1.7 0.00 0.00 0.00 81 1017.4
20260906084324 71 271 1.7 2.6 0.00 0.00 0.00 82 1017.3
20260906083813 71 293 1.7 2.6 0.00 0.00 0.00 81 1017.3
20260906083308 72 316 3.5 4.3 0.00 0.00 0.00 80 1017.4
20260906082804 73 306 5.2 5.2 0.00 0.00 0.00 78 1017.4
20260906082258 73 300 2.6 3.5 0.00 0.00 0.00 75 1017.4
20260906081754 75 289 2.6 3.5 0.00 0.00 0.00 71 1017.4
20260906081250 75 229 2.6 4.3 0.00 0.00 0.00 68 1017.3
20260906080745 75 203 2.6 4.3 0.00 0.00 0.00 66 1017.3
20260906080242 75 189 2.6 4.3 0.00 0.00 0.00 66 1017.2
20260906075735 75 186 2.6 5.2 0.00 0.00 0.00 65 1017.8
20260906075230 75 167 5.2 6.1 0.00 0.00 0.00 66 1017.4
20260906074725 75 179 3.5 7.0 0.00 0.00 0.00 66 1017.5
20260906074224 75 173 4.3 5.2 0.00 0.00 0.00 66 1017.2
20260906073719 75 180 4.3 7.0 0.00 0.00 0.00 65 1017.5
20260906073214 75 190 3.5 5.2 0.00 0.00 0.00 66 1017.7
20260906072710 75 171 4.3 6.1 0.00 0.00 0.00 65 1017.5
20260906072205 75 181 4.3 5.2 0.00 0.00 0.00 66 1017.3
20260906071701 76 181 4.3 6.1 0.00 0.00 0.00 65 1017.7
20260906071201 76 181 6.1 6.1 0.00 0.00 0.00 65 1017.4
20260906070657 76 191 4.3 5.2 0.00 0.00 0.00 66 1017.5
20260906070153 76 191 5.2 5.2 0.00 0.00 0.00 66 1017.8
20260906065652 76 198 3.5 6.1 0.00 0.00 0.00 66 1017.7
20260906065148 76 185 4.3 7.8 0.00 0.00 0.00 66 1017.4
20260906064643 75 181 5.2 5.2 0.00 0.00 0.00 67 1017.3
20260906064139 75 180 4.3 5.2 0.00 0.00 0.00 68 1017.8
20260906063633 75 180 2.6 5.2 0.00 0.00 0.00 69 1017.5
20260906063129 75 180 3.5 3.5 0.00 0.00 0.00 70 1017.7
20260906062625 75 185 3.5 3.5 0.00 0.00 0.00 70 1017.8
20260906062123 75 188 3.5 3.5 0.00 0.00 0.00 71 1017.7
20260906061620 74 194 2.6 4.3 0.00 0.00 0.00 72 1017.7
20260906061119 74 167 2.6 3.5 0.00 0.00 0.00 73 1017.7
20260906060616 74 172 2.6 3.5 0.00 0.00 0.00 74 1017.8
20260906060109 74 175 1.7 3.5 0.00 0.00 0.00 75 1017.9
20260906055603 74 236 2.6 2.6 0.00 0.00 0.00 77 1017.8
20260906055058 74 254 1.7 2.6 0.00 0.00 0.00 79 1017.8
20260906054552 73 257 1.7 3.5 0.00 0.00 0.00 80 1017.7
20260906054047 73 230 1.7 2.6 0.00 0.00 0.00 82 1017.7
20260906053544 73 212 1.7 2.6 0.00 0.00 0.00 83 1017.8
20260906053039 73 242 0.9 1.7 0.00 0.00 0.00 85 1017.8
20260906052534 74 231 1.7 3.5 0.00 0.00 0.00 85 1017.7
20260906052032 74 218 2.6 3.5 0.00 0.00 0.00 86 1017.9
20260906051527 73 145 1.7 3.5 0.00 0.00 0.00 87 1017.8
20260906051023 73 162 3.5 4.3 0.00 0.00 0.00 89 1017.7
20260906050518 73 169 3.5 4.3 0.00 0.00 0.00 91 1017.8
20260906050013 73 159 3.5 4.3 0.00 0.00 0.00 92 1017.8
20260906045511 73 163 3.5 3.5 0.00 0.98 0.98 93 1017.9
20260906045007 73 133 3.5 3.5 0.00 0.98 0.98 95 1017.7
20260906044502 73 150 4.3 5.2 0.00 0.98 0.98 96 1017.8
20260906043957 73 163 3.5 5.2 0.00 0.98 0.98 98 1017.7
20260906043453 72 169 5.2 5.2 0.00 0.98 0.98 99 1017.7
20260906042949 71 191 2.6 4.3 0.00 0.98 0.98 99 1017.5
20260906042448 71 201 4.3 5.2 0.00 0.98 0.98 99 1017.7
20260906041948 71 206 3.5 4.3 0.00 0.98 0.98 99 1017.7
20260906041444 71 172 3.5 4.3 0.00 0.98 0.98 99 1017.5
20260906040943 70 169 2.6 3.5 0.00 0.98 0.98 99 1017.8
20260906040438 71 182 1.7 2.6 0.00 0.98 0.98 99 1018.0
20260906035933 70 212 4.3 5.2 0.00 0.98 0.98 99 1017.8
20260906035429 69 168 5.2 7.0 0.00 0.98 0.98 99 1017.8
20260906034925 69 199 7.8 7.8 0.00 0.98 0.98 99 1017.9
20260906034419 70 221 6.1 7.0 0.00 0.98 0.98 99 1017.8
20260906033914 70 222 2.6 3.5 0.00 0.98 0.98 99 1018.0
20260906033409 70 157 0.9 3.5 0.00 0.98 0.98 99 1017.9
20260906032904 69 143 4.3 6.1 0.00 0.98 0.98 99 1017.3
20260906032400 69 150 4.3 6.1 0.00 0.98 0.98 99 1017.3
20260906031855 69 152 5.2 7.0 0.00 0.98 0.98 99 1017.1
20260906031350 69 141 7.0 8.7 0.00 0.98 0.98 99 1016.9
20260906030846 69 143 6.1 6.1 0.00 0.98 0.98 99 1016.6
20260906030341 68 142 5.2 6.1 0.00 0.98 0.98 99 1016.8
20260906025835 68 163 3.5 5.2 0.00 0.98 0.98 99 1016.8
20260906025329 68 155 4.3 5.2 0.00 0.98 0.98 99 1016.4
20260906024828 68 170 2.6 3.5 0.00 0.98 0.98 98 1016.6
20260906024328 68 161 3.5 4.3 0.02 0.98 0.98 98 1016.6
20260906023823 67 223 6.1 6.1 0.02 0.98 0.98 98 1016.9
20260906023319 67 159 5.2 6.1 0.05 0.97 0.97 98 1017.0
20260906022814 67 154 1.7 6.1 0.14 0.97 0.97 98 1017.1
20260906022309 67 194 7.0 11.3 0.17 0.96 0.96 98 1017.4
20260906021804 66 231 10.4 12.2 0.14 0.94 0.94 98 1017.8
20260906021258 66 282 5.2 7.0 0.40 0.93 0.93 98 1018.1
20260906020752 66 253 11.3 21.7 0.40 0.91 0.91 98 1017.9
20260906020247 65 226 12.2 14.8 0.85 0.86 0.86 97 1018.3
20260906015741 66 256 8.7 21.7 1.63 0.81 0.81 97 1018.4
20260906015239 64 205 12.2 26.1 2.72 0.70 0.70 96 1018.5
20260906014734 65 169 5.2 15.6 1.96 0.47 0.47 95 1019.2
20260906014230 65 318 15.6 20.9 1.35 0.23 0.23 94 1018.2
20260906013726 70 325 26.1 29.5 0.78 0.13 0.13 85 1017.9
20260906013226 80 322 47.8 47.8 0.00 0.00 0.00 58 1016.5
20260906012721 83 313 25.2 29.5 0.00 0.00 0.00 50 1016.0
20260906012216 86 349 16.5 24.3 0.00 0.00 0.00 46 1015.4
20260906011711 87 342 19.1 20.0 0.00 0.00 0.00 42 1015.4
20260906011206 88 329 6.1 13.0 0.00 0.00 0.00 41 1015.6
20260906010701 89 339 3.5 4.3 0.00 0.00 0.00 39 1015.3
20260906010158 90 24 3.5 7.0 0.00 0.00 0.00 38 1015.1
20260906005657 91 10 4.3 6.1 0.00 0.00 0.00 36 1015.3
20260906005157 91 88 4.3 7.8 0.00 0.00 0.00 36 1015.2
20260906004656 91 112 5.2 7.8 0.00 0.00 0.00 35 1015.0
20260906004151 91 128 5.2 9.6 0.00 0.00 0.00 35 1014.9
20260906003646 92 136 7.0 9.6 0.00 0.00 0.00 36 1015.0
20260906003142 92 140 7.0 9.6 0.00 0.00 0.00 36 1014.9
20260906002636 92 131 7.8 13.0 0.00 0.00 0.00 36 1015.0
20260906002131 92 139 10.4 10.4 0.00 0.00 0.00 35 1015.0
20260906001627 92 134 9.6 11.3 0.00 0.00 0.00 35 1014.6
20260906001126 92 136 11.3 13.9 0.00 0.00 0.00 35 1014.7
20260906000622 92 135 12.2 13.9 0.00 0.00 0.00 36 1014.5
20260906000118 92 140 10.4 13.0 0.00 0.00 0.00 36 1014.7
20260905235616 93 144 9.6 11.3 0.00 0.00 0.00 35 1014.6
20260905235112 93 136 11.3 14.8 0.00 0.00 0.00 35 1014.6
20260905234612 93 135 12.2 14.8 0.00 0.00 0.00 35 1014.5
20260905234107 93 136 10.4 16.5 0.00 0.00 0.00 34 1014.3
20260905233602 93 135 9.6 13.9 0.00 0.00 0.00 34 1014.2
20260905233102 93 140 7.8 12.2 0.00 0.00 0.00 32 1014.2
20260905232557 93 144 12.2 13.9 0.00 0.00 0.00 32 1014.3
20260905232053 94 161 8.7 13.9 0.00 0.00 0.00 32 1014.4
20260905231548 94 147 13.0 16.5 0.00 0.00 0.00 32 1014.1
20260905231044 96 140 16.5 20.0 0.00 0.00 0.00 32 1014.2
20260905230543 95 141 13.0 15.6 0.00 0.00 0.00 33 1014.0
20260905230042 95 142 16.5 18.2 0.00 0.00 0.00 34 1014.3
20260905225537 95 137 16.5 20.9 0.00 0.00 0.00 33 1014.1
20260905225033 95 137 11.3 18.2 0.00 0.00 0.00 33 1014.2
20260905224532 94 148 14.8 23.5 0.00 0.00 0.00 35 1014.2
20260905224032 95 151 13.0 17.4 0.00 0.00 0.00 33 1014.2
20260905223530 95 131 13.0 18.2 0.00 0.00 0.00 32 1014.2
20260905223025 95 150 15.6 20.9 0.00 0.00 0.00 32 1014.2
20260905222525 96 141 18.2 20.0 0.00 0.00 0.00 31 1014.2
20260905222020 97 134 16.5 19.1 0.00 0.00 0.00 31 1014.4
20260905221517 96 156 14.8 23.5 0.00 0.00 0.00 31 1014.3
20260905221012 96 136 11.3 15.6 0.00 0.00 0.00 31 1014.2
20260905220509 96 166 8.7 11.3 0.00 0.00 0.00 31 1014.4
20260905220004 96 169 7.8 11.3 0.00 0.00 0.00 30 1014.4
20260905215458 97 162 9.6 16.5 0.00 0.00 0.00 30 1014.5
20260905214954 98 174 8.7 15.6 0.00 0.00 0.00 30 1014.5
20260905214449 97 124 7.8 13.0 0.00 0.00 0.00 31 1014.5
20260905213943 98 157 12.2 18.2 0.00 0.00 0.00 30 1014.6
20260905213439 99 142 13.0 17.4 0.00 0.00 0.00 29 1014.6
20260905212934 99 146 9.6 16.5 0.00 0.00 0.00 29 1014.4